Location: Fredericksburg
(30.2750°N, 98.8720°W)
Time: 07:50:21
(UTC-06:00)

Amateur Radio Satellites - All Passes

Search period start: 09 February 2016 07:20
Search period end: 10 February 2016 07:20
Location: Fredericksburg, 30.2750°N, 98.8720°W

Satellite Date Start Highest point End Downlink Frequencies (MHz)
Time Altitude Azimuth
HO-68 09 Feb 07:30:06 07:34:03 15° 94° (E) 07:37:58 435.675
PHONESAT 2.4 09 Feb 07:35:29 07:38:41 56° 213° (SSW) 07:41:52 2401.200-2431.200
CUTE-I 09 Feb 07:36:23 07:41:16 36° 288° (WNW) 07:46:07 437.470
JUGNU 09 Feb 07:45:40 07:49:22 17° 164° (SSE) 07:53:04 437.505
GONETS M04 09 Feb 07:49:42 07:53:47 14° 80° (E) 07:57:51
Cubesat XI-IV 09 Feb 07:50:12 07:54:39 27° 290° (WNW) 07:59:05 437.490
CUTE 1.7 + AOD 2 09 Feb 07:51:34 07:53:54 14° 94° (E) 07:56:14 437.475
DOVE 4 09 Feb 07:56:43 08:00:45 46° 99° (E) 08:04:43 437.250
SEEDS 09 Feb 07:59:43 08:01:41 13° 94° (E) 08:03:38 437.485
GOMX 1 09 Feb 08:11:35 08:15:46 47° 285° (WNW) 08:19:47 467.674
AAUSAT CUBESAT 2 09 Feb 08:16:55 08:18:25 12° 94° (E) 08:19:53 437.432
CANX-2 09 Feb 08:34:49 08:39:04 61° 100° (E) 08:43:18 2200.000
O/OREOS (USA 219) 09 Feb 08:37:12 08:41:34 56° 290° (WNW) 08:45:58 437.305
PRISM 09 Feb 08:42:13 08:45:23 21° 263° (W) 08:48:36 437.425
BRITE-PL 09 Feb 08:42:33 08:43:48 11° 295° (WNW) 08:45:02 437.365/2234.400
CINEMA 3 09 Feb 08:56:37 09:00:46 80° 102° (ESE) 09:04:59 145.822/145.860
CUBEBUG 2 09 Feb 09:08:55 09:12:43 33° 98° (E) 09:16:37 437.445
UWE-3 09 Feb 09:11:34 09:15:03 25° 97° (E) 09:18:36 435.000/436.395/437.385
Oscar 11 09 Feb 09:14:54 09:18:29 25° 97° (E) 09:22:02 145.826/435.025
HO-68 09 Feb 09:15:01 09:22:12 73° 287° (WNW) 09:29:20 435.675
AO-85 09 Feb 09:15:31 09:17:26 12° 105° (ESE) 09:19:22 145.980
COMPASS 1 09 Feb 09:20:27 09:24:40 78° 283° (WNW) 09:28:53 437.405
SRMSAT 09 Feb 09:20:57 09:23:50 14° 162° (SSE) 09:26:44 437.500
UNISAT 6 09 Feb 09:21:32 09:23:53 14° 69° (ENE) 09:26:14 437.425
CUTE 1.7 + AOD 2 09 Feb 09:25:55 09:29:46 34° 287° (WNW) 09:33:39 437.475
JUGNU 09 Feb 09:32:57 09:37:51 27° 173° (S) 09:42:44 437.505
SEEDS 09 Feb 09:33:32 09:37:28 37° 286° (WNW) 09:41:23 437.485
Cosmos 2499 09 Feb 09:34:52 09:42:34 38° 87° (E) 09:50:30 435.465 / 435.565
DELFI C3 09 Feb 09:35:15 09:38:21 21° 96° (E) 09:41:26 145.870
GONETS M04 09 Feb 09:40:43 09:49:24 84° 275° (W) 09:58:08
AAUSAT CUBESAT 2 09 Feb 09:50:05 09:54:00 39° 286° (WNW) 09:57:55 437.432
ANTELSAT 09 Feb 10:04:31 10:08:43 49° 75° (ENE) 10:12:52 437.575/2403.000
ZACube-1 09 Feb 10:06:42 10:10:56 86° 100° (E) 10:15:15 437.345
TIGRISAT 09 Feb 10:11:34 10:15:51 57° 76° (ENE) 10:20:03 435.000
POPSAT HIP 1 09 Feb 10:14:07 10:15:53 12° 68° (ENE) 10:17:38 437.405
FUNcube-1 09 Feb 10:16:09 10:20:23 75° 282° (WNW) 10:24:41 145.935
NANOSAT C BR1 09 Feb 10:18:48 10:20:59 14° 69° (ENE) 10:23:10 145.865
DUCHIFAT 1 09 Feb 10:20:34 10:22:44 14° 69° (ENE) 10:24:54 145.980
QB50P1 09 Feb 10:25:38 10:28:29 18° 70° (ENE) 10:31:20 145.935-145.965
PCSat 09 Feb 10:26:05 10:30:55 35° 108° (ESE) 10:35:47 145.827
HUMSAT D 09 Feb 10:31:41 10:35:39 42° 99° (E) 10:39:39 437.325/437.525
AIST 1 09 Feb 10:44:06 10:48:16 44° 92° (E) 10:52:28
RS-15 09 Feb 10:46:43 10:56:28 38° 106° (ESE) 11:06:34 29.354- 29.394
CUBEBUG 2 09 Feb 10:46:45 10:49:04 15° 290° (WNW) 10:51:24 437.445
UWE-3 09 Feb 10:48:19 10:51:21 19° 288° (WNW) 10:54:25 435.000/436.395/437.385
Oscar 11 09 Feb 10:51:11 10:54:25 21° 289° (WNW) 10:57:39 145.826/435.025
AO-85 09 Feb 10:52:03 10:57:15 68° 298° (WNW) 11:02:43 145.980
ESTCUBE 1 09 Feb 10:53:58 10:56:23 14° 94° (E) 10:58:48 437.505/2401.250
UNISAT 6 09 Feb 10:56:18 11:00:17 35° 261° (W) 11:04:14 437.425
DX 1 09 Feb 11:01:58 11:04:39 16° 95° (E) 11:07:19 434.975-435.025
SRMSAT 09 Feb 11:07:43 11:12:27 25° 171° (S) 11:17:10 437.500
DELFI C3 09 Feb 11:10:05 11:13:06 21° 288° (WNW) 11:16:08 145.870
POLYITAN 1 09 Feb 11:16:23 11:20:37 82° 77° (ENE) 11:24:52 437.675
QB50P2 09 Feb 11:17:04 11:21:19 86° 72° (ENE) 11:25:33 145.880/145.840
JUGNU 09 Feb 11:21:24 11:26:23 29° 184° (S) 11:31:22 437.505
BUGSAT 1 09 Feb 11:23:00 11:26:58 41° 74° (ENE) 11:30:55 437.445
Cosmos 2499 09 Feb 11:27:41 11:35:30 38° 283° (WNW) 11:43:38 435.465 / 435.565
50 SAT 09 Feb 11:29:43 11:33:20 42° 99° (E) 11:36:58 437.505
GONETS M04 09 Feb 11:44:26 11:47:22 12° 293° (WNW) 11:50:19
POPSAT HIP 1 09 Feb 11:47:17 11:51:17 40° 261° (W) 11:55:16 437.405
NANOSAT C BR1 09 Feb 11:52:30 11:56:23 35° 261° (W) 12:00:16 145.865
VELOX 1 09 Feb 11:52:50 11:57:13 66° 102° (ESE) 12:01:34 145.980
DUCHIFAT 1 09 Feb 11:54:13 11:58:05 35° 261° (W) 12:01:59 145.980
QB50P1 09 Feb 12:00:24 12:04:02 27° 262° (W) 12:07:40 145.935-145.965
AISAT 09 Feb 12:09:24 12:13:47 73° 283° (WNW) 12:18:08 437.250
HUMSAT D 09 Feb 12:09:28 12:10:53 11° 291° (WNW) 12:12:17 437.325/437.525
PCSat 09 Feb 12:09:56 12:14:18 25° 303° (WNW) 12:18:42 145.827
AIST 1 09 Feb 12:24:56 12:26:03 11° 286° (WNW) 12:27:10
UKube-1 09 Feb 12:25:44 12:29:55 51° 285° (WNW) 12:34:05 .
ESTCUBE 1 09 Feb 12:29:04 12:33:16 38° 287° (WNW) 12:37:27 437.505/2401.250
CUBEBUG 1 09 Feb 12:31:02 12:35:14 48° 285° (WNW) 12:39:23 437.445
SPROUT 09 Feb 12:35:59 12:40:10 57° 100° (E) 12:44:21 437.525
DX 1 09 Feb 12:37:00 12:40:50 31° 288° (WNW) 12:44:39 434.975-435.025
TISAT 1 09 Feb 12:47:51 12:51:16 24° 97° (E) 12:54:41 437.305
Oscar 19 09 Feb 12:50:49 12:55:38 40° 73° (ENE) 13:00:27 437.125/150
SRMSAT 09 Feb 12:56:03 13:01:08 30° 181° (S) 13:06:13 437.500
RS-15 09 Feb 12:57:47 13:08:23 50° 304° (NW) 13:19:35 29.354- 29.394
BUGSAT 1 09 Feb 13:01:09 13:02:27 11° 266° (W) 13:03:46 437.445
JUGNU 09 Feb 13:10:41 13:14:52 20° 193° (SSW) 13:19:03 437.505
JAS-2 09 Feb 13:16:28 13:24:05 60° 74° (ENE) 13:31:11 435.910
Gurwin Techsat 1B 09 Feb 13:17:55 13:22:16 26° 70° (ENE) 13:26:36 435.225
CUSAT 1 09 Feb 13:31:13 13:36:40 83° 81° (E) 13:40:42 437.405
ITAMSAT 1 09 Feb 13:58:40 14:03:17 34° 71° (ENE) 14:07:55 435.822/435.867
DANDE 09 Feb 13:59:31 14:06:11 82° 81° (E) 14:11:06 436.750
SWISSCUBE 09 Feb 14:07:55 14:12:24 39° 99° (E) 14:16:52 437.505
TISAT 1 09 Feb 14:23:48 14:26:44 19° 290° (WNW) 14:29:40 437.305
SO-50 09 Feb 14:29:31 14:34:02 41° 58° (ENE) 14:38:23 436.795
Oscar 19 09 Feb 14:31:34 14:35:01 18° 265° (W) 14:38:28 437.125/150
Cosmos 2491 09 Feb 14:32:33 14:39:32 28° 85° (E) 14:46:29 435.465 / 435.565
YUBILEINY 09 Feb 14:33:23 14:41:50 47° 79° (E) 14:50:11 435.215
ITUPSAT 1 09 Feb 14:44:13 14:49:02 90° 43° (NE) 14:53:51 437.325
SRMSAT 09 Feb 14:45:13 14:49:49 24° 191° (S) 14:54:26 437.500
BEESAT 09 Feb 14:53:03 14:57:49 70° 284° (WNW) 15:02:35 436.000
Gurwin Techsat 1B 09 Feb 14:57:28 15:02:02 29° 263° (W) 15:06:36 435.225
JAS-2 09 Feb 15:03:24 15:09:09 22° 265° (W) 15:14:43 435.910
KKS-1 09 Feb 15:04:50 15:07:36 16° 95° (E) 15:10:22 437.445
AO-7 09 Feb 15:10:41 15:18:48 58° 69° (ENE) 15:26:56 29.400- 29.500
ISS 09 Feb 15:13:52 15:16:59 45° 131° (SE) 15:20:05 145.825
RS-15 09 Feb 15:19:59 15:24:37 13° 332° (NNW) 15:29:20 29.354- 29.394
HORYU 2 09 Feb 15:24:35 15:27:24 17° 69° (ENE) 15:30:12 437.375
ITAMSAT 1 09 Feb 15:38:50 15:42:43 21° 264° (W) 15:46:38 435.822/435.867
SWISSCUBE 09 Feb 15:46:49 15:49:51 17° 292° (WNW) 15:52:51 437.505
M-CUBED/EXP-1 PRIME 09 Feb 15:48:56 15:52:45 75° 73° (ENE) 15:56:18 437.505
AUBIESAT-1 09 Feb 15:59:08 16:02:55 82° 74° (ENE) 16:06:28 437.475
SO-50 09 Feb 16:11:23 16:14:04 15° 253° (WSW) 16:16:43 436.795
STARS 09 Feb 16:23:53 16:28:16 80° 103° (ESE) 16:32:37 437.465
Cosmos 2504 09 Feb 16:24:18 16:32:33 51° 80° (E) 16:40:11 435.465 / 435.565
Cosmos 2491 09 Feb 16:27:30 16:35:50 49° 280° (W) 16:44:12 435.465 / 435.565
MOZHAYETS 4 09 Feb 16:30:14 16:34:51 65° 101° (E) 16:39:27
YUBILEINY 09 Feb 16:30:53 16:38:09 30° 275° (W) 16:45:22 435.215
SRMSAT 09 Feb 16:36:10 16:38:25 12° 199° (SSW) 16:40:40 437.500
KKS-1 09 Feb 16:40:16 16:44:11 32° 288° (WNW) 16:48:06 437.445
ISS 09 Feb 16:51:54 16:53:36 13° 325° (NW) 16:55:18 145.825
HORYU 2 09 Feb 16:59:43 17:03:40 32° 262° (W) 17:07:37 437.375
AO-7 09 Feb 17:05:17 17:11:47 25° 263° (W) 17:18:20 29.400- 29.500
CUBESAT XI-V 09 Feb 17:11:35 17:14:12 15° 94° (E) 17:16:49 437.345
CUTE-I 09 Feb 17:13:49 17:17:38 21° 68° (ENE) 17:21:28 437.470
BEESAT 3 09 Feb 17:14:25 17:18:22 82° 116° (ESE) 17:22:22 437.485
Cubesat XI-IV 09 Feb 17:26:43 17:31:09 28° 70° (ENE) 17:35:36 437.490
BEESAT 2 09 Feb 17:37:57 17:41:58 85° 300° (WNW) 17:46:00 435.950
BRITE-PL 09 Feb 18:05:03 18:10:12 37° 73° (ENE) 18:15:19 437.365/2234.400
Cosmos 2504 09 Feb 18:18:47 18:25:16 25° 276° (W) 18:31:28 435.465 / 435.565
LilacSat-2 09 Feb 18:41:40 18:45:18 42° 261° (W) 18:48:56 437.200
CUBESAT XI-V 09 Feb 18:47:19 18:51:41 39° 286° (WNW) 18:56:01 437.345
CUTE-I 09 Feb 18:52:27 18:57:21 38° 261° (W) 19:02:18 437.470
O/OREOS (USA 219) 09 Feb 18:52:43 18:57:19 78° 253° (WSW) 19:01:54 437.305
DOVE 4 09 Feb 18:56:00 19:00:25 29° 73° (ENE) 19:04:39 437.250
Cubesat XI-IV 09 Feb 19:06:36 19:11:04 28° 263° (W) 19:15:35 437.490
GOMX 1 09 Feb 19:12:09 19:17:38 88° 75° (ENE) 19:22:57 467.674
STRAND 1 09 Feb 19:20:22 19:25:18 45° 100° (E) 19:30:13 437.568
CANX-2 09 Feb 19:22:49 19:25:54 20° 71° (ENE) 19:29:01 2200.000
AO-85 09 Feb 19:30:44 19:34:51 25° 54° (NE) 19:38:40 145.980
AIST 2 09 Feb 19:31:01 19:35:02 49° 299° (WNW) 19:39:06 435.215
HO-68 09 Feb 19:37:03 19:43:49 47° 70° (ENE) 19:50:37 435.675
BRITE-PL 09 Feb 19:44:06 19:48:36 24° 265° (W) 19:53:07 437.365/2234.400
CINEMA 3 09 Feb 19:52:24 19:56:43 37° 74° (ENE) 20:00:52 145.822/145.860
RS-15 09 Feb 19:54:14 20:04:27 30° 47° (NE) 20:14:42 29.354- 29.394
GONETS M04 09 Feb 19:58:35 20:06:35 38° 78° (ENE) 20:14:34
CUBEBUG 2 09 Feb 20:02:57 20:05:21 15° 70° (ENE) 20:07:44 437.445
COMPASS 1 09 Feb 20:05:50 20:09:28 31° 73° (ENE) 20:13:09 437.405
UWE-3 09 Feb 20:06:05 20:06:41 10° 68° (ENE) 20:07:17 435.000/436.395/437.385
CUTE 1.7 + AOD 2 09 Feb 20:12:15 20:16:26 78° 76° (ENE) 20:20:38 437.475
SEEDS 09 Feb 20:19:04 20:23:11 68° 77° (ENE) 20:27:21 437.485
PRISM 09 Feb 20:28:31 20:32:42 80° 100° (E) 20:36:50 437.425
DOVE 4 09 Feb 20:33:48 20:37:59 25° 263° (W) 20:42:02 437.250
AAUSAT CUBESAT 2 09 Feb 20:34:15 20:38:18 59° 76° (ENE) 20:42:22 437.432
ZACube-1 09 Feb 20:57:14 21:00:59 31° 73° (ENE) 21:04:40 437.345
CANX-2 09 Feb 20:58:15 21:01:36 23° 264° (W) 21:04:58 2200.000
STRAND 1 09 Feb 21:00:53 21:04:03 17° 293° (WNW) 21:07:13 437.568
PCSat 09 Feb 21:02:14 21:07:41 81° 66° (ENE) 21:13:05 145.827
FUNcube-1 09 Feb 21:06:12 21:10:07 38° 74° (ENE) 21:13:59 145.935
AO-85 09 Feb 21:11:09 21:15:17 28° 251° (WSW) 21:19:07 145.980
HUMSAT D 09 Feb 21:19:10 21:21:19 14° 70° (ENE) 21:23:28 437.325/437.525
HO-68 09 Feb 21:25:55 21:31:37 26° 263° (W) 21:37:22 435.675
Cosmos 2499 09 Feb 21:26:02 21:34:12 60° 81° (E) 21:41:41 435.465 / 435.565
CINEMA 3 09 Feb 21:31:05 21:33:52 16° 265° (W) 21:36:35 145.822/145.860
CUBEBUG 2 09 Feb 21:37:41 21:41:42 34° 262° (W) 21:45:36 437.445
UWE-3 09 Feb 21:38:33 21:42:43 48° 260° (W) 21:46:49 435.000/436.395/437.385
Oscar 11 09 Feb 21:39:02 21:43:13 54° 260° (W) 21:47:27 145.826/435.025
COMPASS 1 09 Feb 21:42:48 21:45:05 14° 266° (W) 21:47:21 437.405
DELFI C3 09 Feb 21:49:33 21:53:29 79° 259° (WSW) 21:57:29 145.870
GONETS M04 09 Feb 21:55:21 22:03:12 38° 273° (W) 22:11:05
ANTELSAT 09 Feb 22:02:52 22:05:38 16° 95° (E) 22:08:26 437.575/2403.000
RS-15 09 Feb 22:05:48 22:18:02 76° 247° (WSW) 22:30:15 29.354- 29.394
TIGRISAT 09 Feb 22:09:31 22:12:36 19° 96° (E) 22:15:42 435.000
AIST 1 09 Feb 22:34:18 22:38:38 75° 265° (W) 22:42:53
ZACube-1 09 Feb 22:34:50 22:37:16 15° 265° (W) 22:39:41 437.345
VELOX 1 09 Feb 22:44:49 22:48:37 28° 72° (ENE) 22:52:26 145.980
FUNcube-1 09 Feb 22:44:50 22:46:27 12° 266° (W) 22:48:04 145.935
HUMSAT D 09 Feb 22:52:59 22:56:39 32° 262° (W) 23:00:19 437.325/437.525
UNISAT 6 09 Feb 22:53:01 22:57:22 71° 102° (ESE) 23:01:49 437.425
AISAT 09 Feb 23:00:56 23:05:13 47° 74° (ENE) 23:09:30 437.250
POLYITAN 1 09 Feb 23:08:01 23:11:08 20° 96° (E) 23:14:16 437.675
QB50P2 09 Feb 23:08:35 23:11:49 21° 97° (E) 23:15:02 145.880/145.840
UKube-1 09 Feb 23:14:14 23:18:29 60° 76° (ENE) 23:22:46 .
CUBEBUG 1 09 Feb 23:20:44 23:25:07 64° 76° (ENE) 23:29:31 437.445
Cosmos 2499 09 Feb 23:20:57 23:26:25 20° 278° (W) 23:31:40 435.465 / 435.565
ESTCUBE 1 09 Feb 23:22:15 23:26:45 87° 257° (WSW) 23:31:18 437.505/2401.250
ISS 09 Feb 23:22:16 23:25:21 40° 43° (NE) 23:28:25 145.825
SPROUT 09 Feb 23:24:46 23:28:01 21° 71° (ENE) 23:31:17 437.525
DX 1 09 Feb 23:26:00 23:30:22 79° 256° (WSW) 23:34:47 434.975-435.025
POPSAT HIP 1 09 Feb 23:37:39 23:41:42 47° 100° (E) 23:45:44 437.405
50 SAT 09 Feb 23:38:06 23:41:34 40° 261° (W) 23:45:05 437.505
ANTELSAT 09 Feb 23:38:28 23:42:20 32° 287° (WNW) 23:46:17 437.575/2403.000
NANOSAT C BR1 09 Feb 23:42:22 23:46:28 53° 101° (E) 23:50:32 145.865
DUCHIFAT 1 09 Feb 23:43:49 23:47:55 53° 101° (E) 23:51:59 145.980
TIGRISAT 09 Feb 23:45:32 23:49:13 28° 287° (WNW) 23:52:58 435.000
QB50P1 09 Feb 23:50:12 23:54:24 72° 102° (ESE) 23:58:34 145.935-145.965
PHONESAT 2.4 10 Feb 00:09:56 00:13:05 48° 146° (SSE) 00:16:16 2401.200-2431.200
VELOX 1 10 Feb 00:21:52 00:25:02 19° 264° (W) 00:28:13 145.980
RS-15 10 Feb 00:23:49 00:28:34 13° 262° (W) 00:33:20 29.354- 29.394
AISAT 10 Feb 00:40:31 00:41:52 11° 266° (W) 00:43:13 437.250
POLYITAN 1 10 Feb 00:43:30 00:46:51 23° 288° (WNW) 00:50:11 437.675
QB50P2 10 Feb 00:44:14 00:47:30 22° 289° (WNW) 00:50:45 145.880/145.840
CUSAT 1 10 Feb 00:44:46 00:49:54 19° 84° (E) 00:55:10 437.405
BUGSAT 1 10 Feb 00:45:47 00:49:38 47° 285° (WNW) 00:53:28 437.445
SPROUT 10 Feb 01:00:24 01:03:50 23° 263° (W) 01:07:17 437.525
ISS 10 Feb 01:00:29 01:01:28 11° 235° (SW) 01:02:27 145.825
TISAT 1 10 Feb 01:08:31 01:12:40 54° 259° (W) 01:16:49 437.305
Oscar 19 10 Feb 01:08:46 01:12:46 23° 96° (E) 01:16:43 437.125/150
SWISSCUBE 10 Feb 01:09:20 01:13:05 24° 70° (ENE) 01:16:51 437.505
POPSAT HIP 1 10 Feb 01:16:25 01:17:01 10° 292° (WNW) 01:17:38 437.405
DANDE 10 Feb 01:17:56 01:23:01 20° 82° (E) 01:28:31 436.750
Gurwin Techsat 1B 10 Feb 01:40:35 01:43:53 17° 95° (E) 01:47:10 435.225
ITUPSAT 1 10 Feb 01:45:10 01:49:47 53° 74° (ENE) 01:54:26 437.325
PHONESAT 2.4 10 Feb 01:47:37 01:50:27 26° 340° (NNW) 01:53:18 2401.200-2431.200
BEESAT 10 Feb 01:53:31 01:58:13 69° 76° (ENE) 02:02:57 436.000
BEESAT 2 10 Feb 02:04:44 02:05:07 10° 51° (NE) 02:05:30 435.950
ITAMSAT 1 10 Feb 02:17:56 02:21:39 20° 96° (E) 02:25:22 435.822/435.867
JAS-2 10 Feb 02:18:29 02:24:00 80° 102° (ESE) 02:29:10 435.910
CUSAT 1 10 Feb 02:23:37 02:31:17 73° 278° (W) 02:39:27 437.405
Cosmos 2491 10 Feb 02:44:28 02:53:10 65° 82° (E) 03:01:51 435.465 / 435.565
SWISSCUBE 10 Feb 02:46:45 02:50:42 26° 263° (W) 02:54:42 437.505
Oscar 19 10 Feb 02:47:33 02:52:01 31° 289° (WNW) 02:56:28 437.125/150
DANDE 10 Feb 02:57:41 03:04:57 70° 280° (W) 03:13:23 436.750
BEESAT 3 10 Feb 03:14:57 03:18:52 65° 244° (WSW) 03:22:43 437.485
STARS 10 Feb 03:15:04 03:19:00 33° 73° (ENE) 03:22:57 437.465
Gurwin Techsat 1B 10 Feb 03:18:54 03:23:57 45° 287° (WNW) 03:28:59 435.225
AO-7 10 Feb 03:19:50 03:26:30 26° 98° (E) 03:33:07 29.400- 29.500
YUBILEINY 10 Feb 03:26:26 03:35:02 65° 92° (E) 03:43:44 435.215
ITUPSAT 1 10 Feb 03:26:28 03:27:51 11° 267° (W) 03:29:15 437.325
PHONESAT 2.4 10 Feb 03:26:38 03:28:24 14° 357° (N) 03:30:11 2401.200-2431.200
MOZHAYETS 4 10 Feb 03:26:45 03:30:42 30° 72° (ENE) 03:34:41
KKS-1 10 Feb 03:31:51 03:36:17 74° 257° (WSW) 03:40:45 437.445
BEESAT 2 10 Feb 03:39:25 03:43:18 53° 246° (WSW) 03:47:08 435.950
ITAMSAT 1 10 Feb 03:56:22 04:01:09 37° 288° (WNW) 04:05:56 435.822/435.867
AIST 2 10 Feb 03:58:35 04:01:31 18° 55° (NE) 04:04:24 435.215
CUSAT 1 10 Feb 04:12:07 04:14:44 12° 294° (WNW) 04:17:21 437.405
SO-50 10 Feb 04:37:32 04:42:14 53° 114° (ESE) 04:47:02 436.795
Cosmos 2491 10 Feb 04:43:13 04:49:09 21° 277° (W) 04:55:07 435.465 / 435.565
DANDE 10 Feb 04:47:29 04:49:26 11° 297° (WNW) 04:51:25 436.750
STARS 10 Feb 04:52:43 04:55:23 16° 265° (W) 04:58:04 437.465
Cosmos 2504 10 Feb 04:53:57 05:01:58 50° 89° (E) 05:10:22 435.465 / 435.565
HORYU 2 10 Feb 04:55:46 05:00:12 74° 102° (ESE) 05:04:39 437.375
PHONESAT 2.4 10 Feb 05:04:03 05:06:29 19° 14° (NNE) 05:08:53 2401.200-2431.200
MOZHAYETS 4 10 Feb 05:04:43 05:07:51 18° 265° (W) 05:11:00
M-CUBED/EXP-1 PRIME 10 Feb 05:08:03 05:11:25 49° 288° (WNW) 05:14:59 437.505
AO-7 10 Feb 05:11:26 05:19:27 54° 292° (WNW) 05:27:25 29.400- 29.500
AUBIESAT-1 10 Feb 05:17:42 05:21:04 45° 288° (WNW) 05:24:39 437.475
YUBILEINY 10 Feb 05:26:09 05:32:22 21° 288° (WNW) 05:38:39 435.215
AIST 2 10 Feb 05:36:27 05:39:59 28° 249° (WSW) 05:43:29 435.215
CUTE-I 10 Feb 05:37:42 05:39:56 12° 93° (E) 05:42:09 437.470
CUBESAT XI-V 10 Feb 05:44:10 05:48:50 81° 259° (W) 05:53:33 437.345
Cubesat XI-IV 10 Feb 05:50:18 05:53:52 18° 95° (E) 05:57:26 437.490
BRITE-PL 10 Feb 06:18:06 06:20:31 14° 92° (E) 06:22:50 437.365/2234.400
SO-50 10 Feb 06:20:04 06:23:01 16° 309° (NW) 06:26:01 436.795
LilacSat-2 10 Feb 06:20:59 06:24:17 28° 98° (E) 06:27:34 437.200
STRAND 1 10 Feb 06:30:43 06:35:20 36° 72° (ENE) 06:39:58 437.568
PHONESAT 2.4 10 Feb 06:40:48 06:44:04 79° 28° (NNE) 06:47:18 2401.200-2431.200
Cosmos 2504 10 Feb 06:48:29 06:55:32 29° 286° (WNW) 07:02:55 435.465 / 435.565
PRISM 10 Feb 07:12:52 07:16:18 25° 72° (ENE) 07:19:45 437.425
